Starlink 4193

operational
NORAD ID: 52875 Int'l Des: 2022-062 Owner: SPXS Country: US Constellation: starlink
LEOCIRCULAR

关于 Starlink 4193

正在加载描述...

实时位置

正在加载3D地球...

即将过境

高度历史

Altitude vs Time

uPlot chart will show altitude changes over time

两行轨道根数

1 52875U 22062AX 25355.05874556 -.00000897 00000-0 -38307-4 0 9990
2 52875 53.2199 7.1065 0001389 101.6076 258.5072 15.08837005194199
Epoch: Dec 21, 2025 • Age: 8 hours

当前状态

高度 543.6 km
速度 7.60 km/s
星下点 45.19°N, 101.34°W
发射日期 Jun 17, 2022
运行时间 3.5 years
类型 internet

技术详情

分类 Payload
质量 297.00 kg
干质量 275.00 kg
总质量 297.00 kg
长度 0.20 m
直径 2.80 m
跨度 9.00 m
形状 Box + pan
制造商 SPXS
平台类型 Starlink
阶段状态 In Orbit
所有者/国家 SPXS/US

大型星座

Loading constellations...